Tracking 22440 objects as of 27-Feb-2021
HD Live streaming from Space Station
objects crossing your sky now

FREGAT DEB

Track FREGAT DEB now!
10-day predictions


NORAD ID: 45614
Int'l Code: 2011-037H
Perigee: 574.5 km
Apogee: 3,306.9 km
Inclination: 51.3 °
Period: 125.7 minutes
Semi major axis: 8311 km
RCS: Unknown
Launch date: July 18, 2011
Source: Commonwealth of Independent States (former USSR) (CIS)
Launch site: TYURATAM MISSILE AND SPACE COMPLEX (TTMTR)

Note: This is SATELLITE DEBRIS
aabbcc
Your satellite tracking list
Your tracking list is empty




NASA's NSSDC Master Catalog

Two Line Element Set (TLE):
1 45614U 11037H   21057.66371696 -.00020354  00000-0 -13200-1 0  9994
2 45614  51.2896  53.9329 1643689 204.6704 146.5981 11.45697793 33297
Source of the keplerian elements: AFSPC